GW2742 Weather Reports


time (UTC)temp
C
wind
direction
speed
KPH
gust
KPH
rain 1hr
cm
rain 24hr
cm
rain mn
cm
humidity
%
barometer
mb
20260906075525 16 198 3.2 4.8 0.00 0.00 0.00 62 1016.0
20260906075024 16 188 0.0 3.2 0.00 0.00 0.00 62 1016.2
20260906074546 16 0 0.0 3.2 0.00 0.00 0.00 62 1015.9
20260906074027 16 193 0.0 4.8 0.00 0.00 0.00 63 1016.1
20260906073528 16 0 0.0 6.4 0.00 0.00 0.00 62 1016.1
20260906073052 16 234 1.6 9.7 0.00 0.00 0.00 61 1016.1
20260906072531 16 236 3.2 9.7 0.00 0.00 0.00 60 1016.1
20260906072027 16 260 0.0 6.4 0.00 0.00 0.00 60 1016.0
20260906071548 16 261 1.6 6.4 0.00 0.00 0.00 60 1016.1
20260906071025 16 221 1.6 4.8 0.00 0.00 0.00 61 1016.2
20260906070528 16 206 0.0 4.8 0.00 0.00 0.00 60 1016.0
20260906070045 16 205 1.6 4.8 0.00 0.00 0.00 59 1015.9
20260906065525 16 196 1.6 4.8 0.00 0.00 0.00 59 1015.8
20260906065025 17 197 1.6 4.8 0.00 0.00 0.00 59 1015.8
20260906064549 17 184 1.6 6.4 0.00 0.00 0.00 58 1016.0
20260906064023 17 234 1.6 6.4 0.00 0.00 0.00 58 1016.0
20260906063523 17 221 1.6 4.8 0.00 0.00 0.00 57 1015.8
20260906063050 17 229 0.0 3.2 0.00 0.00 0.00 57 1015.8
20260906062527 17 0 1.6 4.8 0.00 0.00 0.00 56 1015.8
20260906062024 17 207 0.0 4.8 0.00 0.00 0.00 56 1015.8
20260906061549 17 207 0.0 8.0 0.00 0.00 0.00 55 1015.8
20260906061025 18 0 0.0 8.0 0.00 0.00 0.00 55 1016.1
20260906060524 18 138 0.0 4.8 0.00 0.00 0.00 54 1015.8
20260906060054 18 143 0.0 4.8 0.00 0.00 0.00 53 1015.8
20260906055523 19 143 1.6 4.8 0.00 0.00 0.00 51 1015.8
20260906055024 19 340 0.0 8.0 0.00 0.00 0.00 51 1015.7
20260906054546 20 0 3.2 8.0 0.00 0.00 0.00 50 1015.7
20260906054025 20 337 1.6 14.5 0.00 0.00 0.00 50 1015.8
20260906053524 20 335 3.2 14.5 0.00 0.00 0.00 50 1015.7
20260906053043 19 293 4.8 11.3 0.00 0.00 0.00 50 1015.7
20260906052524 19 337 3.2 11.3 0.00 0.00 0.00 51 1015.7
20260906052026 19 264 3.2 9.7 0.00 0.00 0.00 51 1015.7
20260906051543 18 360 0.0 4.8 0.00 0.00 0.00 51 1015.7
20260906051025 18 106 0.0 8.0 0.00 0.00 0.00 51 1015.8
20260906050527 18 359 0.0 8.0 0.00 0.00 0.00 51 1015.8
20260906050045 18 342 1.6 6.4 0.00 0.00 0.00 52 1015.8
20260906045524 18 174 1.6 6.4 0.00 0.00 0.00 51 1015.9
20260906045024 18 152 3.2 6.4 0.00 0.00 0.00 52 1015.8
20260906044550 18 160 3.2 8.0 0.00 0.00 0.00 52 1015.7
20260906044024 19 174 3.2 8.0 0.00 0.00 0.00 53 1015.7
20260906043529 19 153 3.2 6.4 0.00 0.00 0.00 51 1015.8
20260906043044 18 68 1.6 6.4 0.00 0.00 0.00 52 1015.7
20260906042525 19 0 0.0 4.8 0.00 0.00 0.00 52 1015.6
20260906042025 19 191 0.0 3.2 0.00 0.00 0.00 51 1015.5
20260906041544 19 0 0.0 4.8 0.00 0.00 0.00 51 1015.6
20260906041023 20 166 1.6 9.7 0.00 0.00 0.00 50 1015.5
20260906040523 20 166 4.8 9.7 0.00 0.00 0.00 50 1015.6
20260906040048 20 148 3.2 4.8 0.00 0.00 0.00 49 1015.5
20260906035526 20 0 0.0 4.8 0.00 0.00 0.00 48 1015.4
20260906035025 19 183 1.6 4.8 0.00 0.00 0.00 48 1015.4
20260906034558 20 259 0.0 6.4 0.00 0.00 0.00 50 1015.5
20260906034024 20 262 0.0 6.4 0.00 0.00 0.00 49 1015.5
20260906033524 20 164 3.2 6.4 0.00 0.00 0.00 47 1015.5
20260906033045 20 0 0.0 4.8 0.00 0.00 0.00 47 1015.4
20260906032527 21 0 1.6 4.8 0.00 0.00 0.00 47 1015.4
20260906032024 21 124 1.6 4.8 0.00 0.00 0.00 47 1015.4
20260906031553 21 124 1.6 4.8 0.00 0.00 0.00 45 1015.2
20260906031027 21 0 0.0 6.4 0.00 0.00 0.00 44 1015.1
20260906030527 21 125 0.0 8.0 0.00 0.00 0.00 44 1015.1
20260906030052 21 101 3.2 8.0 0.00 0.00 0.00 44 1015.0
20260906025528 21 115 0.0 4.8 0.00 0.00 0.00 44 1014.8
20260906025027 21 110 1.6 4.8 0.00 0.00 0.00 45 1014.7
20260906024547 21 219 1.6 6.4 0.00 0.00 0.00 45 1014.7
20260906024027 21 0 0.0 6.4 0.00 0.00 0.00 45 1014.5
20260906023528 21 0 1.6 6.4 0.00 0.00 0.00 45 1014.6
20260906023046 21 0 0.0 4.8 0.00 0.00 0.00 45 1014.5
20260906022523 22 238 0.0 8.0 0.00 0.00 0.00 44 1014.6
20260906022025 22 292 1.6 8.0 0.00 0.00 0.00 43 1014.6
20260906021600 22 0 1.6 4.8 0.00 0.00 0.00 43 1014.4
20260906021025 22 245 0.0 4.8 0.00 0.00 0.00 43 1014.3
20260906020527 22 178 0.0 6.4 0.00 0.00 0.00 43 1014.3
20260906020048 22 178 1.6 6.4 0.00 0.00 0.00 42 1014.5
20260906015524 22 282 1.6 6.4 0.00 0.00 0.00 42 1014.3
20260906015027 23 0 1.6 6.4 0.00 0.00 0.00 42 1014.3
20260906014549 23 239 0.0 3.2 0.00 0.00 0.00 42 1014.4
20260906014025 23 134 0.0 3.2 0.00 0.00 0.00 41 1014.4
20260906013524 23 0 0.0 3.2 0.00 0.00 0.00 41 1014.3
20260906013049 24 0 0.0 3.2 0.00 0.00 0.00 41 1014.3
20260906012529 25 0 0.0 3.2 0.00 0.00 0.00 39 1014.4
20260906012026 25 6 0.0 9.7 0.00 0.00 0.00 39 1014.3
20260906011546 25 0 1.6 9.7 0.00 0.00 0.00 39 1014.3
20260906011023 25 0 0.0 3.2 0.00 0.00 0.00 39 1014.4
20260906010525 26 358 0.0 3.2 0.00 0.00 0.00 36 1014.3
20260906010059 26 0 0.0 6.4 0.00 0.00 0.00 38 1014.3
20260906005524 26 0 0.0 8.0 0.00 0.00 0.00 37 1014.2
20260906005024 26 278 0.0 8.0 0.00 0.00 0.00 37 1014.2
20260906004611 26 0 3.2 9.7 0.00 0.00 0.00 37 1014.2
20260906004029 26 329 3.2 9.7 0.00 0.00 0.00 35 1014.3
20260906003528 26 1 3.2 9.7 0.00 0.00 0.00 35 1014.2
20260906003047 26 307 3.2 9.7 0.00 0.00 0.00 35 1014.2
20260906002528 26 349 3.2 9.7 0.00 0.00 0.00 34 1014.2
20260906002024 27 339 1.6 9.7 0.00 0.00 0.00 37 1014.2
20260906001559 27 336 4.8 9.7 0.00 0.00 0.00 35 1014.2
20260906001023 27 345 4.8 8.0 0.00 0.00 0.00 35 1014.2
20260906000527 27 320 3.2 8.0 0.00 0.00 0.00 33 1014.3
20260906000044 28 319 3.2 8.0 0.00 0.00 0.00 34 1014.3
20260905235524 28 0 3.2 8.0 0.00 0.00 0.00 34 1014.3
20260905235025 28 44 1.6 8.0 0.00 0.00 0.00 31 1014.3
20260905234552 28 331 3.2 8.0 0.00 0.00 0.00 34 1014.4
20260905234027 28 31 1.6 6.4 0.00 0.00 0.00 32 1014.4
20260905233528 28 0 1.6 4.8 0.00 0.00 0.00 30 1014.4
20260905233044 29 291 1.6 4.8 0.00 0.00 0.00 30 1014.4
20260905232530 29 0 0.0 3.2 0.00 0.00 0.00 32 1014.4
20260905232026 29 0 0.0 6.4 0.00 0.00 0.00 36 1014.4
20260905231544 28 127 0.0 6.4 0.00 0.00 0.00 28 1014.5
20260905231028 29 113 1.6 4.8 0.00 0.00 0.00 30 1014.5
20260905230524 29 0 1.6 4.8 0.00 0.00 0.00 31 1014.5
20260905230052 28 0 0.0 3.2 0.00 0.00 0.00 35 1014.6
20260905225535 28 0 0.0 4.8 0.00 0.00 0.00 28 1014.6
20260905225027 28 0 0.0 4.8 0.00 0.00 0.00 34 1014.7
20260905224543 28 308 1.6 6.4 0.00 0.00 0.00 30 1014.9
20260905224025 28 0 0.0 8.0 0.00 0.00 0.00 31 1014.9
20260905223524 28 121 3.2 8.0 0.00 0.00 0.00 31 1014.9
20260905223050 28 57 0.0 8.0 0.00 0.00 0.00 31 1015.0
20260905222523 28 160 1.6 8.0 0.00 0.00 0.00 33 1015.1
20260905222026 28 75 1.6 8.0 0.00 0.00 0.00 37 1015.1
20260905221544 28 21 3.2 6.4 0.00 0.00 0.00 30 1015.2
20260905221025 28 60 3.2 6.4 0.00 0.00 0.00 31 1015.1
20260905220524 28 46 0.0 6.4 0.00 0.00 0.00 30 1015.3
20260905220045 28 68 3.2 6.4 0.00 0.00 0.00 30 1015.3
20260905215524 27 0 0.0 8.0 0.00 0.00 0.00 30 1015.2
20260905215023 27 119 3.2 8.0 0.00 0.00 0.00 31 1015.4
20260905214550 27 79 3.2 9.7 0.00 0.00 0.00 29 1015.5
20260905214027 27 94 3.2 9.7 0.00 0.00 0.00 33 1015.5
20260905213528 27 263 0.0 8.0 0.00 0.00 0.00 35 1015.5
20260905213048 27 32 1.6 8.0 0.00 0.00 0.00 32 1015.6
20260905212526 27 0 3.2 8.0 0.00 0.00 0.00 33 1015.7
20260905212025 27 92 3.2 8.0 0.00 0.00 0.00 32 1015.7
20260905211547 27 134 3.2 11.3 0.00 0.00 0.00 31 1015.6
20260905211026 27 97 3.2 11.3 0.00 0.00 0.00 31 1015.7
20260905210526 27 79 4.8 9.7 0.00 0.00 0.00 35 1015.8
20260905210110 27 74 3.2 11.3 0.00 0.00 0.00 35 1015.7
20260905205523 27 113 4.8 11.3 0.00 0.00 0.00 33 1015.8
20260905205024 26 115 4.8 9.7 0.00 0.00 0.00 31 1015.8
20260905204547 27 72 4.8 9.7 0.00 0.00 0.00 32 1015.9
20260905204026 27 134 3.2 9.7 0.00 0.00 0.00 34 1015.9
20260905203529 26 53 3.2 9.7 0.00 0.00 0.00 32 1015.9
20260905203046 26 150 3.2 6.4 0.00 0.00 0.00 36 1015.9
20260905202525 26 304 1.6 8.0 0.00 0.00 0.00 32 1016.0
20260905202025 26 324 1.6 8.0 0.00 0.00 0.00 39 1015.9
20260905201544 26 148 1.6 6.4 0.00 0.00 0.00 33 1016.0
20260905201023 26 217 1.6 6.4 0.00 0.00 0.00 33 1016.1
20260905200523 26 0 1.6 8.0 0.00 0.00 0.00 33 1016.2
20260905200109 26 255 1.6 9.7 0.00 0.00 0.00 34 1016.2
20260905195523 26 322 3.2 9.7 0.00 0.00 0.00 33 1016.2
20260905195024 26 94 3.2 11.3 0.00 0.00 0.00 35 1016.2
20260905194552 26 291 1.6 11.3 0.00 0.00 0.00 34 1016.3
20260905194024 26 63 1.6 9.7 0.00 0.00 0.00 41 1016.3
20260905193525 26 58 0.0 6.4 0.00 0.00 0.00 34 1016.3
20260905193045 25 207 1.6 6.4 0.00 0.00 0.00 39 1016.3
20260905192524 25 53 1.6 6.4 0.00 0.00 0.00 34 1016.5
20260905192025 25 330 1.6 12.9 0.00 0.00 0.00 41 1016.5
20260905191543 25 320 1.6 12.9 0.00 0.00 0.00 34 1016.6
20260905191026 25 57 3.2 11.3 0.00 0.00 0.00 38 1016.6
20260905190525 25 32 0.0 8.0 0.00 0.00 0.00 34 1016.5
20260905190044 25 171 1.6 6.4 0.00 0.00 0.00 35 1016.6
20260905185524 25 0 1.6 9.7 0.00 0.00 0.00 42 1016.7
20260905185024 25 325 4.8 9.7 0.00 0.00 0.00 42 1016.6
20260905184609 25 258 1.6 6.4 0.00 0.00 0.00 38 1016.8
20260905184024 25 8 1.6 4.8 0.00 0.00 0.00 40 1017.0
20260905183526 24 39 0.0 8.0 0.00 0.00 0.00 37 1017.0
20260905183046 24 227 1.6 8.0 0.00 0.00 0.00 36 1017.1
20260905182525 24 37 1.6 11.3 0.00 0.00 0.00 40 1017.1
20260905182028 23 40 3.2 11.3 0.00 0.00 0.00 36 1017.2
20260905181555 23 33 3.2 9.7 0.00 0.00 0.00 37 1017.2
20260905181025 23 1 4.8 9.7 0.00 0.00 0.00 44 1017.3
20260905180526 23 0 1.6 8.0 0.00 0.00 0.00 44 1017.4
20260905180051 23 344 1.6 11.3 0.00 0.00 0.00 43 1017.5
20260905175526 23 327 3.2 11.3 0.00 0.00 0.00 39 1017.6
20260905175024 23 1 1.6 11.3 0.00 0.00 0.00 42 1017.6
20260905174545 23 15 1.6 9.7 0.00 0.00 0.00 42 1017.7
20260905174024 23 25 3.2 9.7 0.00 0.00 0.00 38 1017.7
20260905173525 23 329 1.6 8.0 0.00 0.00 0.00 37 1017.6
20260905173054 23 350 3.2 8.0 0.00 0.00 0.00 38 1017.7
20260905172525 23 131 1.6 6.4 0.00 0.00 0.00 38 1017.7
20260905172025 23 8 3.2 6.4 0.00 0.00 0.00 38 1017.7
20260905171550 22 7 1.6 6.4 0.00 0.00 0.00 36 1017.8
20260905171027 22 310 1.6 8.0 0.00 0.00 0.00 38 1017.7
20260905170527 22 0 0.0 8.0 0.00 0.00 0.00 42 1017.7
20260905170044 22 333 3.2 8.0 0.00 0.00 0.00 39 1017.7
20260905165526 22 25 1.6 11.3 0.00 0.00 0.00 41 1017.7
20260905165028 22 0 3.2 11.3 0.00 0.00 0.00 40 1017.8
20260905164546 22 79 4.8 11.3 0.00 0.00 0.00 39 1017.7
20260905164027 22 322 1.6 8.0 0.00 0.00 0.00 39 1017.7
20260905163524 21 0 0.0 8.0 0.00 0.00 0.00 41 1017.7
20260905163051 21 84 1.6 9.7 0.00 0.00 0.00 41 1017.8
20260905162523 21 346 3.2 11.3 0.00 0.00 0.00 41 1017.6
20260905162022 21 359 4.8 11.3 0.00 0.00 0.00 43 1017.7
20260905161546 21 288 3.2 9.7 0.00 0.00 0.00 43 1017.7
20260905161028 21 0 1.6 9.7 0.00 0.00 0.00 43 1017.7
20260905160524 21 314 1.6 9.7 0.00 0.00 0.00 45 1017.7
20260905160045 21 334 3.2 8.0 0.00 0.00 0.00 41 1017.7
20260905155526 21 348 1.6 8.0 0.00 0.00 0.00 43 1017.6
20260905155023 21 0 1.6 9.7 0.00 0.00 0.00 43 1017.7
20260905154559 21 48 1.6 9.7 0.00 0.00 0.00 43 1017.6
20260905154028 21 349 1.6 9.7 0.00 0.00 0.00 43 1017.6
20260905153528 20 354 1.6 8.0 0.00 0.00 0.00 47 1017.6
20260905153045 20 310 0.0 8.0 0.00 0.00 0.00 50 1017.5
20260905152528 20 0 0.0 6.4 0.00 0.00 0.00 49 1017.4
20260905152025 19 359 1.6 6.4 0.00 0.00 0.00 46 1017.4
20260905151606 19 0 0.0 4.8 0.00 0.00 0.00 49 1017.5
20260905151028 18 252 1.6 4.8 0.00 0.00 0.00 51 1017.5
20260905150527 18 252 1.6 4.8 0.00 0.00 0.00 53 1017.5
20260905150054 18 226 1.6 4.8 0.00 0.00 0.00 56 1017.5
20260905145526 17 226 1.6 4.8 0.00 0.00 0.00 54 1017.5
20260905145027 17 213 0.0 6.4 0.00 0.00 0.00 57 1017.5
20260905144549 17 0 1.6 6.4 0.00 0.00 0.00 57 1017.4
20260905144026 16 0 0.0 4.8 0.00 0.00 0.00 57 1017.5
20260905143525 16 259 1.6 4.8 0.00 0.00 0.00 57 1017.4
20260905143045 15 262 0.0 3.2 0.00 0.00 0.00 60 1017.4
20260905142530 15 0 0.0 3.2 0.00 0.00 0.00 63 1017.4
20260905142027 15 0 0.0 3.2 0.00 0.00 0.00 64 1017.3
20260905141550 14 285 0.0 4.8 0.00 0.00 0.00 66 1017.2
20260905141030 14 291 0.0 6.4 0.00 0.00 0.00 66 1017.0
20260905140527 13 238 1.6 6.4 0.00 0.00 0.00 65 1017.2
20260905140048 13 222 0.0 3.2 0.00 0.00 0.00 66 1017.0
20260905135527 13 0 0.0 3.2 0.00 0.00 0.00 69 1016.9
20260905135025 12 0 0.0 4.8 0.00 0.00 0.00 68 1016.8
20260905134543 12 0 0.0 6.4 0.00 0.00 0.00 69 1016.8
20260905134025 12 0 1.6 6.4 0.00 0.00 0.00 69 1016.9
20260905133524 11 199 3.2 6.4 0.00 0.00 0.00 71 1017.0
20260905133052 11 198 1.6 6.4 0.00 0.00 0.00 71 1016.8
20260905132525 11 184 0.0 6.4 0.00 0.00 0.00 71 1016.8
20260905132025 11 0 0.0 0.0 0.00 0.00 0.00 70 1016.7
20260905131601 11 0 0.0 0.0 0.00 0.00 0.00 71 1016.4
20260905131030 11 0 0.0 0.0 0.00 0.00 0.00 71 1016.2
20260905130524 11 0 0.0 0.0 0.00 0.00 0.00 70 1016.0
20260905130044 11 0 0.0 0.0 0.00 0.00 0.00 70 1016.1
20260905125524 11 0 0.0 0.0 0.00 0.00 0.00 69 1016.1
20260905125024 11 0 0.0 0.0 0.00 0.00 0.00 69 1016.1
20260905124543 11 0 0.0 0.0 0.00 0.00 0.00 69 1016.2
20260905124024 11 0 0.0 0.0 0.00 0.00 0.00 70 1016.1
20260905123526 11 0 0.0 0.0 0.00 0.00 0.00 69 1015.7
20260905123107 11 0 0.0 0.0 0.00 0.00 0.00 70 1015.6
20260905122527 11 0 0.0 0.0 0.00 0.00 0.00 67 1015.7
20260905122024 11 0 0.0 0.0 0.00 0.00 0.00 68 1015.8
20260905121546 11 0 0.0 0.0 0.00 0.00 0.00 68 1016.0
20260905121024 11 0 0.0 0.0 0.00 0.00 0.00 67 1016.0
20260905120524 11 0 0.0 0.0 0.00 0.00 0.00 68 1016.1
20260905120045 11 0 0.0 0.0 0.00 0.00 0.00 66 1016.1
20260905115529 11 0 0.0 0.0 0.00 0.00 0.00 67 1016.0
20260905115026 11 0 0.0 0.0 0.00 0.00 0.00 68 1015.9
20260905114546 11 0 0.0 0.0 0.00 0.00 0.00 67 1015.4
20260905114025 11 0 0.0 0.0 0.00 0.00 0.00 67 1015.4
20260905113525 11 0 0.0 0.0 0.00 0.00 0.00 67 1015.4
20260905113045 11 0 0.0 0.0 0.00 0.00 0.00 67 1015.4
20260905112525 12 0 0.0 3.2 0.00 0.00 0.00 67 1015.5
20260905112024 12 0 0.0 3.2 0.00 0.00 0.00 66 1015.5
20260905111549 12 0 0.0 3.2 0.00 0.00 0.00 66 1015.3
20260905111026 12 245 0.0 4.8 0.00 0.00 0.00 65 1015.4
20260905110528 12 0 0.0 4.8 0.00 0.00 0.00 65 1015.3
20260905110042 12 224 0.0 3.2 0.00 0.00 0.00 66 1015.2
20260905105524 12 0 0.0 3.2 0.00 0.00 0.00 68 1015.0
20260905105024 12 0 0.0 4.8 0.00 0.00 0.00 68 1014.8
20260905104551 12 224 1.6 4.8 0.00 0.00 0.00 67 1014.8
20260905104025 12 224 0.0 3.2 0.00 0.00 0.00 68 1014.8
20260905103525 12 224 1.6 3.2 0.00 0.00 0.00 67 1014.9
20260905103054 12 0 0.0 3.2 0.00 0.00 0.00 68 1014.8
20260905102524 12 224 1.6 4.8 0.00 0.00 0.00 66 1014.9
20260905102025 12 0 0.0 4.8 0.00 0.00 0.00 65 1014.9
20260905101544 12 224 1.6 4.8 0.00 0.00 0.00 66 1014.8
20260905101024 12 221 1.6 4.8 0.00 0.00 0.00 65 1014.6
20260905100523 13 228 1.6 4.8 0.00 0.00 0.00 64 1014.5
20260905100053 13 227 0.0 4.8 0.00 0.00 0.00 64 1014.5
20260905095524 13 0 1.6 3.2 0.00 0.00 0.00 62 1014.5
20260905095023 13 0 0.0 3.2 0.00 0.00 0.00 61 1014.8
20260905094553 13 237 0.0 4.8 0.00 0.00 0.00 64 1014.8
20260905094024 13 0 0.0 4.8 0.00 0.00 0.00 61 1014.9
20260905093525 13 245 3.2 4.8 0.00 0.00 0.00 61 1014.9
20260905093045 13 262 0.0 4.8 0.00 0.00 0.00 61 1014.3
20260905092523 14 354 0.0 3.2 0.00 0.00 0.00 60 1014.2
20260905092024 14 0 0.0 3.2 0.00 0.00 0.00 60 1014.3
20260905091551 14 0 0.0 8.0 0.00 0.00 0.00 58 1014.3
20260905091026 14 0 0.0 8.0 0.00 0.00 0.00 59 1014.5
20260905090523 14 220 1.6 8.0 0.00 0.00 0.00 59 1014.6
20260905090047 14 0 0.0 0.0 0.00 0.00 0.00 59 1014.2
20260905085524 15 0 0.0 0.0 0.00 0.00 0.00 58 1014.0
20260905085026 15 0 0.0 0.0 0.00 0.00 0.00 56 1014.0
20260905084553 15 0 0.0 1.6 0.00 0.00 0.00 54 1014.0
20260905084024 15 0 0.0 1.6 0.00 0.00 0.00 55 1014.3
20260905083530 16 325 0.0 4.8 0.00 0.00 0.00 52 1014.4
20260905083044 16 0 0.0 6.4 0.00 0.00 0.00 54 1014.3
20260905082524 16 304 1.6 6.4 0.00 0.00 0.00 50 1014.3
20260905082024 16 176 1.6 6.4 0.00 0.00 0.00 50 1014.2
20260905081543 16 178 0.0 4.8 0.00 0.00 0.00 52 1014.2
20260905081029 16 0 0.0 4.8 0.00 0.00 0.00 51 1014.2
20260905080523 16 0 0.0 6.4 0.00 0.00 0.00 50 1014.2
20260905080128 16 178 1.6 6.4 0.00 0.00 0.00 51 1014.3